Time,TemperatureF,DewpointF,PressureIn,WindDirection,WindDirectionDegrees,WindSpeedMPH,WindSpeedGustMPH,Humidity,HourlyPrecipIn,Conditions,Clouds,dailyrainin,SoftwareType,DateUTC
2013-06-04 00:01:00,60.8,48.1,29.81,WNW,282,0.0,0.0,63,0.00,,,0.00,Wunderground v.1.15,2013-06-04 04:01:00,
2013-06-04 00:02:00,60.7,48.0,29.81,West,265,0.0,0.0,63,0.00,,,0.00,Wunderground v.1.15,2013-06-04 04:02:00,
2013-06-04 00:03:00,60.7,48.0,29.81,NNW,345,0.0,0.0,63,0.00,,,0.00,Wunderground v.1.15,2013-06-04 04:03:00,
2013-06-04 00:04:00,60.6,47.5,29.81,West,281,0.0,0.0,62,0.00,,,0.00,Wunderground v.1.15,2013-06-04 04:04:00,
2013-06-04 00:09:00,60.4,47.7,29.81,WNW,286,0.0,0.0,63,0.00,,,0.00,Wunderground v.1.15,2013-06-04 04:09:00,
2013-06-04 00:17:00,59.9,46.8,29.80,WNW,303,0.0,0.0,62,0.00,,,0.00,Wunderground v.1.15,2013-06-04 04:17:00,
2013-06-04 00:22:00,59.5,46.5,29.80,NNW,346,0.0,0.0,62,0.00,,,0.00,Wunderground v.1.15,2013-06-04 04:22:00,
2013-06-04 00:23:00,59.5,46.5,29.80,NNE,23,0.0,0.0,62,0.00,,,0.00,Wunderground v.1.15,2013-06-04 04:23:00,
2013-06-04 00:28:00,59.1,46.5,29.80,SE,139,0.0,0.0,63,0.00,,,0.00,Wunderground v.1.15,2013-06-04 04:28:00,
2013-06-04 00:34:00,59.0,46.0,29.81,WNW,282,0.0,0.0,62,0.00,,,0.00,Wunderground v.1.15,2013-06-04 04:34:00,
2013-06-04 00:42:00,58.7,45.7,29.81,West,271,0.0,0.0,62,0.00,,,0.00,Wunderground v.1.15,2013-06-04 04:42:00,
2013-06-04 00:47:00,58.5,45.9,29.81,NW,313,0.0,0.0,63,0.00,,,0.00,Wunderground v.1.15,2013-06-04 04:47:00,
2013-06-04 00:53:00,58.2,45.7,29.81,WNW,299,0.0,0.0,63,0.00,,,0.00,Wunderground v.1.15,2013-06-04 04:53:00,
2013-06-04 00:58:00,58.1,45.6,29.82,NNE,26,0.0,0.0,63,0.00,,,0.00,Wunderground v.1.15,2013-06-04 04:58:00,
2013-06-04 01:04:00,57.8,45.3,29.82,West,261,0.0,0.0,63,0.00,,,0.00,Wunderground v.1.15,2013-06-04 05:04:00,
2013-06-04 01:12:00,57.6,44.7,29.82,NNE,15,0.0,0.0,62,0.00,,,0.00,Wunderground v.1.15,2013-06-04 05:12:00,
2013-06-04 01:17:00,57.5,44.6,29.82,NNW,332,0.0,0.0,62,0.00,,,0.00,Wunderground v.1.15,2013-06-04 05:17:00,
2013-06-04 01:23:00,57.4,44.9,29.83,North,350,0.0,0.0,63,0.00,,,0.00,Wunderground v.1.15,2013-06-04 05:23:00,
2013-06-04 01:29:00,57.2,44.7,29.83,NW,315,0.0,0.0,63,0.00,,,0.00,Wunderground v.1.15,2013-06-04 05:29:00,
2013-06-04 01:34:00,57.1,44.2,29.83,NNW,347,0.0,0.0,62,0.00,,,0.00,Wunderground v.1.15,2013-06-04 05:34:00,
2013-06-04 01:41:00,57.2,43.0,29.83,NNW,339,0.0,0.0,59,0.00,,,0.00,Wunderground v.1.15,2013-06-04 05:41:00,
2013-06-04 01:47:00,57.2,43.0,29.83,WNW,299,0.0,0.0,59,0.00,,,0.00,Wunderground v.1.15,2013-06-04 05:47:00,
2013-06-04 01:52:00,57.1,42.9,29.83,NNW,333,0.0,0.0,59,0.00,,,0.00,Wunderground v.1.15,2013-06-04 05:52:00,
2013-06-04 01:57:00,56.9,42.7,29.83,NNE,16,0.0,0.0,59,0.00,,,0.00,Wunderground v.1.15,2013-06-04 05:57:00,
2013-06-04 02:03:00,56.8,41.7,29.83,NE,41,0.0,0.0,57,0.00,,,0.00,Wunderground v.1.15,2013-06-04 06:03:00,
2013-06-04 02:09:00,56.5,41.9,29.83,NW,309,0.0,0.0,58,0.00,,,0.00,Wunderground v.1.15,2013-06-04 06:09:00,
2013-06-04 02:16:00,56.2,41.6,29.83,North,355,0.0,0.0,58,0.00,,,0.00,Wunderground v.1.15,2013-06-04 06:16:00,
2013-06-04 02:21:00,55.9,41.8,29.83,NNW,328,0.0,0.0,59,0.00,,,0.00,Wunderground v.1.15,2013-06-04 06:21:00,
2013-06-04 02:26:00,55.6,41.0,29.83,NE,34,0.0,0.0,58,0.00,,,0.00,Wunderground v.1.15,2013-06-04 06:26:00,
2013-06-04 02:31:00,55.4,41.3,29.83,NNW,330,0.0,0.0,59,0.00,,,0.00,Wunderground v.1.15,2013-06-04 06:31:00,
2013-06-04 02:37:00,55.1,41.0,29.83,NNW,334,0.0,0.0,59,0.00,,,0.00,Wunderground v.1.15,2013-06-04 06:37:00,
2013-06-04 02:43:00,54.8,41.2,29.83,NNW,344,0.0,0.0,60,0.00,,,0.00,Wunderground v.1.15,2013-06-04 06:43:00,
2013-06-04 02:49:00,54.5,41.3,29.84,NNW,339,0.0,0.0,61,0.00,,,0.00,Wunderground v.1.15,2013-06-04 06:49:00,
2013-06-04 02:56:00,54.0,42.5,29.84,NNW,346,0.0,0.0,65,0.00,,,0.00,Wunderground v.1.15,2013-06-04 06:56:00,
2013-06-04 03:02:00,53.5,42.0,29.84,NW,323,0.0,0.0,65,0.00,,,0.00,Wunderground v.1.15,2013-06-04 07:02:00,
2013-06-04 03:07:00,53.2,41.7,29.84,NNW,327,0.0,0.0,65,0.00,,,0.00,Wunderground v.1.15,2013-06-04 07:07:00,
2013-06-04 03:13:00,52.8,41.4,29.84,WNW,300,0.0,0.0,65,0.00,,,0.00,Wunderground v.1.15,2013-06-04 07:13:00,
2013-06-04 03:19:00,52.7,41.3,29.84,West,267,0.0,0.0,65,0.00,,,0.00,Wunderground v.1.15,2013-06-04 07:19:00,
2013-06-04 03:26:00,52.6,41.6,29.84,WNW,296,0.0,0.0,66,0.00,,,0.00,Wunderground v.1.15,2013-06-04 07:26:00,
2013-06-04 03:31:00,52.5,41.1,29.84,WNW,290,0.0,0.0,65,0.00,,,0.00,Wunderground v.1.15,2013-06-04 07:31:00,
2013-06-04 03:37:00,52.4,41.4,29.84,WNW,284,0.0,0.0,66,0.00,,,0.00,Wunderground v.1.15,2013-06-04 07:37:00,
2013-06-04 03:42:00,52.2,40.8,29.84,WNW,292,0.0,0.0,65,0.00,,,0.00,Wunderground v.1.15,2013-06-04 07:42:00,
2013-06-04 03:47:00,51.9,40.9,29.84,NW,310,0.0,0.0,66,0.00,,,0.00,Wunderground v.1.15,2013-06-04 07:47:00,
2013-06-04 03:53:00,51.6,41.0,29.84,West,281,0.0,0.0,67,0.00,,,0.00,Wunderground v.1.15,2013-06-04 07:53:00,
2013-06-04 03:58:00,51.4,40.8,29.84,WNW,294,0.0,0.0,67,0.00,,,0.00,Wunderground v.1.15,2013-06-04 07:58:00,
2013-06-04 04:03:00,51.2,41.0,29.84,NNW,343,0.0,0.0,68,0.00,,,0.00,Wunderground v.1.15,2013-06-04 08:03:00,
2013-06-04 04:09:00,51.0,41.2,29.84,NW,304,0.0,0.0,69,0.00,,,0.00,Wunderground v.1.15,2013-06-04 08:09:00,
2013-06-04 04:16:00,50.8,41.0,29.84,West,275,0.0,0.0,69,0.00,,,0.00,Wunderground v.1.15,2013-06-04 08:16:00,
2013-06-04 04:22:00,50.7,40.5,29.85,NW,317,0.0,0.0,68,0.00,,,0.00,Wunderground v.1.15,2013-06-04 08:22:00,
2013-06-04 04:27:00,50.7,40.9,29.85,NNW,346,0.0,0.0,69,0.00,,,0.00,Wunderground v.1.15,2013-06-04 08:27:00,
2013-06-04 04:33:00,50.6,40.8,29.85,NW,320,0.0,0.0,69,0.00,,,0.00,Wunderground v.1.15,2013-06-04 08:33:00,
2013-06-04 04:39:00,50.5,41.8,29.84,WNW,290,0.0,0.0,72,0.00,,,0.00,Wunderground v.1.15,2013-06-04 08:39:00,
2013-06-04 04:44:00,50.3,41.6,29.84,West,273,0.0,0.0,72,0.00,,,0.00,Wunderground v.1.15,2013-06-04 08:44:00,
2013-06-04 04:51:00,50.0,42.4,29.84,WNW,292,0.0,0.0,75,0.00,,,0.00,Wunderground v.1.15,2013-06-04 08:51:00,
2013-06-04 04:57:00,49.6,42.0,29.85,WNW,292,0.0,0.0,75,0.00,,,0.00,Wunderground v.1.15,2013-06-04 08:57:00,
2013-06-04 05:03:00,49.4,41.1,29.85,NNW,348,0.0,0.0,73,0.00,,,0.00,Wunderground v.1.15,2013-06-04 09:03:00,
2013-06-04 05:08:00,49.2,40.6,29.85,North,355,0.0,0.0,72,0.00,,,0.00,Wunderground v.1.15,2013-06-04 09:08:00,
2013-06-04 05:14:00,49.1,40.8,29.85,WNW,292,0.0,0.0,73,0.00,,,0.00,Wunderground v.1.15,2013-06-04 09:14:00,
2013-06-04 05:21:00,49.0,41.1,29.85,NW,326,0.0,0.0,74,0.00,,,0.00,Wunderground v.1.15,2013-06-04 09:21:00,
2013-06-04 05:26:00,48.9,41.3,29.86,NNE,16,0.0,0.0,75,0.00,,,0.00,Wunderground v.1.15,2013-06-04 09:26:00,
2013-06-04 05:32:00,48.7,41.5,29.86,West,280,0.0,0.0,76,0.00,,,0.00,Wunderground v.1.15,2013-06-04 09:32:00,
2013-06-04 05:38:00,48.7,41.5,29.86,WNW,290,0.0,0.0,76,0.00,,,0.00,Wunderground v.1.15,2013-06-04 09:38:00,
2013-06-04 05:44:00,48.7,40.8,29.86,WNW,288,0.0,0.0,74,0.00,,,0.00,Wunderground v.1.15,2013-06-04 09:44:00,
2013-06-04 06:08:00,50.0,41.3,29.86,NW,309,0.0,0.0,72,0.00,,,0.00,Wunderground v.1.15,2013-06-04 10:08:00,
2013-06-04 06:14:00,50.2,41.5,29.87,West,273,0.0,0.0,72,0.00,,,0.00,Wunderground v.1.15,2013-06-04 10:14:00,
2013-06-04 06:21:00,50.3,41.6,29.87,WNW,287,0.0,0.0,72,0.00,,,0.00,Wunderground v.1.15,2013-06-04 10:21:00,
2013-06-04 06:26:00,50.4,42.1,29.87,WNW,286,0.0,0.0,73,0.00,,,0.00,Wunderground v.1.15,2013-06-04 10:26:00,
2013-06-04 06:31:00,50.7,42.0,29.87,NNW,344,0.0,0.0,72,0.00,,,0.00,Wunderground v.1.15,2013-06-04 10:31:00,
2013-06-04 06:37:00,51.1,42.4,29.87,North,351,0.0,0.0,72,0.00,,,0.00,Wunderground v.1.15,2013-06-04 10:37:00,
2013-06-04 06:43:00,51.4,42.3,29.88,WNW,296,0.0,0.0,71,0.00,,,0.00,Wunderground v.1.15,2013-06-04 10:43:00,
2013-06-04 06:48:00,51.8,42.7,29.88,West,277,0.0,0.0,71,0.00,,,0.00,Wunderground v.1.15,2013-06-04 10:48:00,
2013-06-04 06:54:00,52.3,42.4,29.88,WNW,292,0.0,0.0,69,0.00,,,0.00,Wunderground v.1.15,2013-06-04 10:54:00,
2013-06-04 06:59:00,52.7,42.4,29.88,NW,316,0.0,0.0,68,0.00,,,0.00,Wunderground v.1.15,2013-06-04 10:59:00,
2013-06-04 07:04:00,53.2,42.5,29.88,North,360,0.0,0.0,67,0.00,,,0.00,Wunderground v.1.15,2013-06-04 11:04:00,
2013-06-04 07:09:00,53.5,42.8,29.88,West,275,0.0,0.0,67,0.00,,,0.00,Wunderground v.1.15,2013-06-04 11:09:00,
2013-06-04 07:16:00,53.9,42.8,29.88,NW,304,0.0,0.0,66,0.00,,,0.00,Wunderground v.1.15,2013-06-04 11:16:00,
2013-06-04 07:21:00,54.1,43.0,29.88,WNW,296,0.0,0.0,66,0.00,,,0.00,Wunderground v.1.15,2013-06-04 11:21:00,
2013-06-04 07:26:00,54.2,43.1,29.88,WNW,291,0.0,0.0,66,0.00,,,0.00,Wunderground v.1.15,2013-06-04 11:26:00,
2013-06-04 07:31:00,54.5,43.0,29.88,NE,47,0.0,0.0,65,0.00,,,0.00,Wunderground v.1.15,2013-06-04 11:31:00,
2013-06-04 07:37:00,54.8,43.3,29.88,North,355,0.0,0.0,65,0.00,,,0.00,Wunderground v.1.15,2013-06-04 11:37:00,
2013-06-04 07:42:00,55.0,42.6,29.88,ENE,72,0.0,0.0,63,0.00,,,0.00,Wunderground v.1.15,2013-06-04 11:42:00,
2013-06-04 07:48:00,55.4,43.0,29.88,NW,323,0.0,0.0,63,0.00,,,0.00,Wunderground v.1.15,2013-06-04 11:48:00,
2013-06-04 07:54:00,55.7,43.7,29.88,ENE,59,0.0,0.0,64,0.00,,,0.00,Wunderground v.1.15,2013-06-04 11:54:00,
2013-06-04 07:59:00,56.0,43.6,29.88,NE,54,0.0,0.0,63,0.00,,,0.00,Wunderground v.1.15,2013-06-04 11:59:00,
2013-06-04 08:04:00,56.3,43.4,29.89,NW,306,0.0,0.0,62,0.00,,,0.00,Wunderground v.1.15,2013-06-04 12:04:00,
2013-06-04 08:12:00,56.7,43.4,29.88,NNE,17,0.0,0.0,61,0.00,,,0.00,Wunderground v.1.15,2013-06-04 12:12:00,
2013-06-04 08:17:00,56.9,44.0,29.88,WNW,288,0.0,0.0,62,0.00,,,0.00,Wunderground v.1.15,2013-06-04 12:17:00,
2013-06-04 08:22:00,57.2,43.4,29.89,NW,314,0.0,0.0,60,0.00,,,0.00,Wunderground v.1.15,2013-06-04 12:22:00,
2013-06-04 08:27:00,57.3,44.0,29.89,NW,324,0.0,0.0,61,0.00,,,0.00,Wunderground v.1.15,2013-06-04 12:27:00,
2013-06-04 08:33:00,57.5,44.1,29.89,WNW,293,0.0,0.0,61,0.00,,,0.00,Wunderground v.1.15,2013-06-04 12:33:00,
2013-06-04 08:38:00,57.6,43.8,29.89,WNW,299,0.0,0.0,60,0.00,,,0.00,Wunderground v.1.15,2013-06-04 12:38:00,
2013-06-04 08:44:00,57.6,44.7,29.90,NNE,31,0.0,0.0,62,0.00,,,0.00,Wunderground v.1.15,2013-06-04 12:44:00,
2013-06-04 08:49:00,57.6,44.2,29.90,NNE,24,0.0,0.0,61,0.00,,,0.00,Wunderground v.1.15,2013-06-04 12:49:00,
2013-06-04 08:54:00,57.6,44.2,29.90,NNE,13,0.0,0.0,61,0.00,,,0.00,Wunderground v.1.15,2013-06-04 12:54:00,
2013-06-04 09:01:00,57.8,44.9,29.91,NNE,19,0.0,0.0,62,0.00,,,0.00,Wunderground v.1.15,2013-06-04 13:01:00,
2013-06-04 09:07:00,58.0,44.6,29.90,West,265,0.0,0.0,61,0.00,,,0.00,Wunderground v.1.15,2013-06-04 13:07:00,
2013-06-04 09:12:00,58.0,44.6,29.90,NW,304,0.0,0.0,61,0.00,,,0.00,Wunderground v.1.15,2013-06-04 13:12:00,
2013-06-04 09:17:00,58.1,44.3,29.90,West,279,0.0,0.0,60,0.00,,,0.00,Wunderground v.1.15,2013-06-04 13:17:00,
2013-06-04 09:22:00,58.3,44.0,29.90,West,273,0.0,0.0,59,0.00,,,0.00,Wunderground v.1.15,2013-06-04 13:22:00,
2013-06-04 09:28:00,58.4,44.1,29.90,North,360,0.0,0.0,59,0.00,,,0.00,Wunderground v.1.15,2013-06-04 13:28:00,
2013-06-04 09:33:00,58.5,45.1,29.90,WNW,299,0.0,0.0,61,0.00,,,0.00,Wunderground v.1.15,2013-06-04 13:33:00,
2013-06-04 09:39:00,59.0,45.1,29.90,North,355,0.0,0.0,60,0.00,,,0.00,Wunderground v.1.15,2013-06-04 13:39:00,
2013-06-04 09:44:00,59.0,45.1,29.90,NNW,334,0.0,0.0,60,0.00,,,0.00,Wunderground v.1.15,2013-06-04 13:44:00,
2013-06-04 09:49:00,59.5,45.2,29.89,NNW,337,0.0,0.0,59,0.00,,,0.00,Wunderground v.1.15,2013-06-04 13:49:00,
2013-06-04 09:56:00,60.4,44.6,29.90,ENE,67,0.0,0.0,56,0.00,,,0.00,Wunderground v.1.15,2013-06-04 13:56:00,
2013-06-04 10:02:00,60.7,44.4,29.90,NNE,22,0.0,0.0,55,0.00,,,0.00,Wunderground v.1.15,2013-06-04 14:02:00,
2013-06-04 10:07:00,60.9,46.0,29.89,West,276,0.0,0.0,58,0.00,,,0.00,Wunderground v.1.15,2013-06-04 14:07:00,
2013-06-04 10:12:00,61.1,45.7,29.90,ESE,103,0.0,0.0,57,0.00,,,0.00,Wunderground v.1.15,2013-06-04 14:12:00,
2013-06-04 10:18:00,61.7,46.3,29.90,WNW,291,0.0,0.0,57,0.00,,,0.00,Wunderground v.1.15,2013-06-04 14:18:00,
2013-06-04 10:23:00,62.1,46.7,29.90,NW,314,0.0,0.0,57,0.00,,,0.00,Wunderground v.1.15,2013-06-04 14:23:00,
2013-06-04 10:28:00,62.5,46.6,29.90,WNW,294,0.0,0.0,56,0.00,,,0.00,Wunderground v.1.15,2013-06-04 14:28:00,
2013-06-04 10:34:00,62.5,46.1,29.90,NNE,26,0.0,0.0,55,0.00,,,0.00,Wunderground v.1.15,2013-06-04 14:34:00,
2013-06-04 10:41:00,62.9,47.4,29.90,WSW,254,0.0,0.0,57,0.00,,,0.00,Wunderground v.1.15,2013-06-04 14:41:00,
2013-06-04 10:46:00,62.9,46.0,29.90,NNW,344,0.0,0.0,54,0.00,,,0.00,Wunderground v.1.15,2013-06-04 14:46:00,
2013-06-04 10:51:00,62.6,45.7,29.90,NNW,339,0.0,0.0,54,0.00,,,0.00,Wunderground v.1.15,2013-06-04 14:51:00,
2013-06-04 10:57:00,62.5,45.6,29.89,NE,49,0.0,0.0,54,0.00,,,0.00,Wunderground v.1.15,2013-06-04 14:57:00,
2013-06-04 11:02:00,62.8,47.3,29.90,West,279,0.0,0.0,57,0.00,,,0.00,Wunderground v.1.15,2013-06-04 15:02:00,
2013-06-04 11:08:00,63.1,46.2,29.90,WNW,286,0.0,0.0,54,0.00,,,0.00,Wunderground v.1.15,2013-06-04 15:08:00,
2013-06-04 11:14:00,63.1,46.7,29.90,WSW,250,0.0,0.0,55,0.00,,,0.00,Wunderground v.1.15,2013-06-04 15:14:00,
2013-06-04 11:21:00,63.9,47.4,29.91,NNE,24,0.0,0.0,55,0.00,,,0.00,Wunderground v.1.15,2013-06-04 15:21:00,
2013-06-04 11:26:00,64.3,47.3,29.90,NNE,28,0.0,0.0,54,0.00,,,0.00,Wunderground v.1.15,2013-06-04 15:26:00,
2013-06-04 11:31:00,64.5,48.0,29.91,NW,308,0.0,0.0,55,0.00,,,0.00,Wunderground v.1.15,2013-06-04 15:31:00,
2013-06-04 11:37:00,64.8,48.7,29.91,NW,315,0.0,0.0,56,0.00,,,0.00,Wunderground v.1.15,2013-06-04 15:37:00,
2013-06-04 11:42:00,64.7,46.7,29.91,WNW,299,0.0,0.0,52,0.00,,,0.00,Wunderground v.1.15,2013-06-04 15:42:00,
2013-06-04 11:47:00,64.2,48.2,29.91,WNW,286,0.0,0.0,56,0.00,,,0.00,Wunderground v.1.15,2013-06-04 15:47:00,
2013-06-04 11:53:00,64.3,47.3,29.91,North,5,0.0,0.0,54,0.00,,,0.00,Wunderground v.1.15,2013-06-04 15:53:00,
2013-06-04 11:59:00,64.6,46.6,29.91,WNW,289,0.0,0.0,52,0.00,,,0.00,Wunderground v.1.15,2013-06-04 15:59:00,
2013-06-04 12:07:00,65.1,47.0,29.91,NW,312,0.0,0.0,52,0.00,,,0.00,Wunderground v.1.15,2013-06-04 16:07:00,
2013-06-04 12:13:00,65.4,47.8,29.91,North,355,0.0,0.0,53,0.00,,,0.00,Wunderground v.1.15,2013-06-04 16:13:00,
2013-06-04 12:18:00,65.4,48.8,29.91,East,83,0.0,0.0,55,0.00,,,0.00,Wunderground v.1.15,2013-06-04 16:18:00,
2013-06-04 12:24:00,66.2,50.0,29.91,WNW,297,0.0,0.0,56,0.00,,,0.00,Wunderground v.1.15,2013-06-04 16:24:00,
2013-06-04 12:31:00,66.3,49.2,29.91,North,350,0.0,0.0,54,0.00,,,0.00,Wunderground v.1.15,2013-06-04 16:31:00,
2013-06-04 12:36:00,65.8,49.2,29.91,NNE,22,0.0,0.0,55,0.00,,,0.00,Wunderground v.1.15,2013-06-04 16:36:00,
2013-06-04 12:42:00,66.0,48.4,29.91,NNW,348,0.0,0.0,53,0.00,,,0.00,Wunderground v.1.15,2013-06-04 16:42:00,
2013-06-04 12:47:00,66.3,46.6,29.91,NW,321,0.0,0.0,49,0.00,,,0.00,Wunderground v.1.15,2013-06-04 16:47:00,
2013-06-04 12:53:00,66.7,46.9,29.91,WNW,294,0.0,0.0,49,0.00,,,0.00,Wunderground v.1.15,2013-06-04 16:53:00,
2013-06-04 12:58:00,66.7,48.0,29.91,WNW,300,0.0,0.0,51,0.00,,,0.00,Wunderground v.1.15,2013-06-04 16:58:00,
2013-06-04 13:03:00,66.9,47.1,29.90,WNW,284,0.0,0.0,49,0.00,,,0.00,Wunderground v.1.15,2013-06-04 17:03:00,
2013-06-04 13:09:00,66.5,46.7,29.90,North,5,0.0,0.0,49,0.00,,,0.00,Wunderground v.1.15,2013-06-04 17:09:00,
2013-06-04 13:14:00,66.3,46.6,29.91,NNE,22,0.0,0.0,49,0.00,,,0.00,Wunderground v.1.15,2013-06-04 17:14:00,
2013-06-04 13:19:00,66.0,46.8,29.91,NE,36,0.0,0.0,50,0.00,,,0.00,Wunderground v.1.15,2013-06-04 17:19:00,
2013-06-04 13:26:00,66.6,47.9,29.91,NNE,28,0.0,0.0,51,0.00,,,0.00,Wunderground v.1.15,2013-06-04 17:26:00,
2013-06-04 13:32:00,67.9,46.9,29.91,WNW,289,0.0,0.0,47,0.00,,,0.00,Wunderground v.1.15,2013-06-04 17:32:00,
2013-06-04 13:38:00,68.4,50.1,29.91,ESE,103,0.0,0.0,52,0.00,,,0.00,Wunderground v.1.15,2013-06-04 17:38:00,
2013-06-04 13:43:00,68.4,46.8,29.91,North,351,0.0,0.0,46,0.00,,,0.00,Wunderground v.1.15,2013-06-04 17:43:00,
2013-06-04 13:48:00,67.5,47.1,29.91,NE,44,0.0,0.0,48,0.00,,,0.00,Wunderground v.1.15,2013-06-04 17:48:00,
2013-06-04 13:54:00,66.8,47.0,29.91,NNW,333,0.0,0.0,49,0.00,,,0.00,Wunderground v.1.15,2013-06-04 17:54:00,
2013-06-04 13:59:00,67.2,48.5,29.91,NNW,346,0.0,0.0,51,0.00,,,0.00,Wunderground v.1.15,2013-06-04 17:59:00,
2013-06-04 14:04:00,67.6,47.8,29.91,West,267,0.0,0.0,49,0.00,,,0.00,Wunderground v.1.15,2013-06-04 18:04:00,
2013-06-04 14:11:00,67.9,48.0,29.91,NNE,32,0.0,0.0,49,0.00,,,0.00,Wunderground v.1.15,2013-06-04 18:11:00,
2013-06-04 14:16:00,68.5,49.7,29.91,North,351,0.0,0.0,51,0.00,,,0.00,Wunderground v.1.15,2013-06-04 18:16:00,
2013-06-04 14:22:00,68.8,48.3,29.91,NNE,28,0.0,0.0,48,0.00,,,0.00,Wunderground v.1.15,2013-06-04 18:22:00,
2013-06-04 14:27:00,68.6,48.7,29.92,WNW,284,0.0,0.0,49,0.00,,,0.00,Wunderground v.1.15,2013-06-04 18:27:00,
2013-06-04 14:32:00,68.8,48.9,29.91,WNW,284,0.0,0.0,49,0.00,,,0.00,Wunderground v.1.15,2013-06-04 18:32:00,
2013-06-04 14:37:00,69.2,49.2,29.91,WNW,299,0.0,0.0,49,0.00,,,0.00,Wunderground v.1.15,2013-06-04 18:37:00,
2013-06-04 14:43:00,68.6,50.3,29.91,West,279,0.0,0.0,52,0.00,,,0.00,Wunderground v.1.15,2013-06-04 18:43:00,
2013-06-04 14:48:00,68.8,48.9,29.91,NW,323,0.0,0.0,49,0.00,,,0.00,Wunderground v.1.15,2013-06-04 18:48:00,
2013-06-04 14:53:00,68.2,48.3,29.91,WNW,290,0.0,0.0,49,0.00,,,0.00,Wunderground v.1.15,2013-06-04 18:53:00,
2013-06-04 14:59:00,68.1,49.3,29.92,NE,51,0.0,0.0,51,0.00,,,0.00,Wunderground v.1.15,2013-06-04 18:59:00,
2013-06-04 15:06:00,68.8,49.4,29.92,West,278,0.0,0.0,50,0.00,,,0.00,Wunderground v.1.15,2013-06-04 19:06:00,
2013-06-04 15:12:00,69.1,49.7,29.91,WNW,300,0.0,0.0,50,0.00,,,0.00,Wunderground v.1.15,2013-06-04 19:12:00,
2013-06-04 15:17:00,68.7,48.8,29.91,WNW,282,0.0,0.0,49,0.00,,,0.00,Wunderground v.1.15,2013-06-04 19:17:00,
2013-06-04 15:22:00,68.8,48.3,29.91,NNW,330,0.0,0.0,48,0.00,,,0.00,Wunderground v.1.15,2013-06-04 19:22:00,
2013-06-04 15:28:00,69.1,49.7,29.91,NE,47,0.0,0.0,50,0.00,,,0.00,Wunderground v.1.15,2013-06-04 19:28:00,
2013-06-04 15:33:00,69.7,49.7,29.92,WNW,296,0.0,0.0,49,0.00,,,0.00,Wunderground v.1.15,2013-06-04 19:33:00,
2013-06-04 15:38:00,70.3,49.7,29.92,NNW,336,0.0,0.0,48,0.00,,,0.00,Wunderground v.1.15,2013-06-04 19:38:00,
2013-06-04 15:44:00,70.2,49.6,29.92,NW,304,0.0,0.0,48,0.00,,,0.00,Wunderground v.1.15,2013-06-04 19:44:00,
2013-06-04 15:49:00,69.9,49.9,29.92,NE,52,0.0,0.0,49,0.00,,,0.00,Wunderground v.1.15,2013-06-04 19:49:00,
2013-06-04 15:54:00,70.1,49.5,29.92,NW,304,0.0,0.0,48,0.00,,,0.00,Wunderground v.1.15,2013-06-04 19:54:00,
2013-06-04 16:01:00,70.4,49.2,29.92,North,360,0.0,0.0,47,0.00,,,0.00,Wunderground v.1.15,2013-06-04 20:01:00,
2013-06-04 16:06:00,70.2,49.0,29.92,ENE,58,0.0,0.0,47,0.00,,,0.00,Wunderground v.1.15,2013-06-04 20:06:00,
2013-06-04 16:12:00,70.4,50.9,29.91,NNE,24,0.0,0.0,50,0.00,,,0.00,Wunderground v.1.15,2013-06-04 20:12:00,
2013-06-04 16:17:00,70.5,51.0,29.92,NNE,15,0.0,0.0,50,0.00,,,0.00,Wunderground v.1.15,2013-06-04 20:17:00,
2013-06-04 16:23:00,70.6,48.8,29.92,NW,322,0.0,0.0,46,0.00,,,0.00,Wunderground v.1.15,2013-06-04 20:23:00,
2013-06-04 16:28:00,70.5,50.4,29.91,NNE,23,0.0,0.0,49,0.00,,,0.00,Wunderground v.1.15,2013-06-04 20:28:00,
2013-06-04 16:33:00,70.5,50.4,29.92,WNW,283,0.0,0.0,49,0.00,,,0.00,Wunderground v.1.15,2013-06-04 20:33:00,
2013-06-04 16:39:00,71.2,51.1,29.91,North,351,0.0,0.0,49,0.00,,,0.00,Wunderground v.1.15,2013-06-04 20:39:00,
2013-06-04 16:44:00,71.3,50.0,29.91,NE,36,0.0,0.0,47,0.00,,,0.00,Wunderground v.1.15,2013-06-04 20:44:00,
2013-06-04 16:49:00,71.1,50.4,29.91,NNW,346,0.0,0.0,48,0.00,,,0.00,Wunderground v.1.15,2013-06-04 20:49:00,
2013-06-04 16:54:00,71.2,50.5,29.92,NE,34,0.0,0.0,48,0.00,,,0.00,Wunderground v.1.15,2013-06-04 20:54:00,
2013-06-04 16:59:00,71.5,51.3,29.91,West,267,0.0,0.0,49,0.00,,,0.00,Wunderground v.1.15,2013-06-04 20:59:00,
2013-06-04 17:04:00,71.5,50.2,29.92,WNW,284,0.0,0.0,47,0.00,,,0.00,Wunderground v.1.15,2013-06-04 21:04:00,
2013-06-04 17:11:00,71.0,50.3,29.91,SSW,206,0.0,0.0,48,0.00,,,0.00,Wunderground v.1.15,2013-06-04 21:11:00,
2013-06-04 17:17:00,71.3,51.1,29.92,WNW,291,0.0,0.0,49,0.00,,,0.00,Wunderground v.1.15,2013-06-04 21:17:00,
2013-06-04 17:23:00,71.6,50.3,29.92,WNW,294,0.0,0.0,47,0.00,,,0.00,Wunderground v.1.15,2013-06-04 21:23:00,
2013-06-04 17:29:00,71.3,49.4,29.91,NNW,336,0.0,0.0,46,0.00,,,0.00,Wunderground v.1.15,2013-06-04 21:29:00,
2013-06-04 17:34:00,71.3,49.4,29.91,West,281,0.0,0.0,46,0.00,,,0.00,Wunderground v.1.15,2013-06-04 21:34:00,
2013-06-04 17:39:00,71.5,50.8,29.91,WNW,290,0.0,0.0,48,0.00,,,0.00,Wunderground v.1.15,2013-06-04 21:39:00,
2013-06-04 17:46:00,71.5,50.2,29.91,WNW,290,0.0,0.0,47,0.00,,,0.00,Wunderground v.1.15,2013-06-04 21:46:00,
2013-06-04 17:52:00,71.6,49.7,29.91,NNE,13,0.0,0.0,46,0.00,,,0.00,Wunderground v.1.15,2013-06-04 21:52:00,
2013-06-04 17:58:00,70.8,50.1,29.91,NW,307,0.0,0.0,48,0.00,,,0.00,Wunderground v.1.15,2013-06-04 21:58:00,
2013-06-04 18:03:00,70.4,48.6,29.91,NW,309,0.0,0.0,46,0.00,,,0.00,Wunderground v.1.15,2013-06-04 22:03:00,
2013-06-04 18:08:00,70.2,49.6,29.92,NW,304,0.0,0.0,48,0.00,,,0.00,Wunderground v.1.15,2013-06-04 22:08:00,
2013-06-04 18:13:00,70.3,49.7,29.92,NNW,340,0.0,0.0,48,0.00,,,0.00,Wunderground v.1.15,2013-06-04 22:13:00,
2013-06-04 18:19:00,70.3,50.2,29.92,NW,326,0.0,0.0,49,0.00,,,0.00,Wunderground v.1.15,2013-06-04 22:19:00,
2013-06-04 18:26:00,70.1,49.5,29.92,WNW,292,0.0,0.0,48,0.00,,,0.00,Wunderground v.1.15,2013-06-04 22:26:00,
2013-06-04 18:31:00,69.9,49.3,29.93,North,360,0.0,0.0,48,0.00,,,0.00,Wunderground v.1.15,2013-06-04 22:31:00,
2013-06-04 18:36:00,69.6,49.6,29.93,NW,315,0.0,0.0,49,0.00,,,0.00,Wunderground v.1.15,2013-06-04 22:36:00,
2013-06-04 18:42:00,69.3,49.3,29.93,WNW,300,0.0,0.0,49,0.00,,,0.00,Wunderground v.1.15,2013-06-04 22:42:00,
2013-06-04 18:47:00,69.0,49.0,29.93,NNW,342,0.0,0.0,49,0.00,,,0.00,Wunderground v.1.15,2013-06-04 22:47:00,
2013-06-04 18:52:00,68.8,48.9,29.93,NW,317,0.0,0.0,49,0.00,,,0.00,Wunderground v.1.15,2013-06-04 22:52:00,
2013-06-04 18:57:00,68.6,48.1,29.94,WNW,284,0.0,0.0,48,0.00,,,0.00,Wunderground v.1.15,2013-06-04 22:57:00,
2013-06-04 19:03:00,68.4,48.5,29.95,North,5,0.0,0.0,49,0.00,,,0.00,Wunderground v.1.15,2013-06-04 23:03:00,
2013-06-04 19:08:00,68.3,49.5,29.95,WNW,286,0.0,0.0,51,0.00,,,0.00,Wunderground v.1.15,2013-06-04 23:08:00,
2013-06-04 19:13:00,68.1,49.3,29.95,NNW,338,0.0,0.0,51,0.00,,,0.00,Wunderground v.1.15,2013-06-04 23:13:00,
2013-06-04 19:19:00,67.8,49.0,29.95,NW,313,0.0,0.0,51,0.00,,,0.00,Wunderground v.1.15,2013-06-04 23:19:00,
2013-06-04 19:24:00,67.6,50.4,29.95,NW,313,0.0,0.0,54,0.00,,,0.00,Wunderground v.1.15,2013-06-04 23:24:00,
2013-06-04 19:29:00,67.3,49.6,29.95,NW,313,0.0,0.0,53,0.00,,,0.00,Wunderground v.1.15,2013-06-04 23:29:00,
2013-06-04 19:36:00,67.0,49.3,29.95,West,281,0.0,0.0,53,0.00,,,0.00,Wunderground v.1.15,2013-06-04 23:36:00,
2013-06-04 19:41:00,66.8,52.0,29.96,West,281,0.0,0.0,59,0.00,,,0.00,Wunderground v.1.15,2013-06-04 23:41:00,
2013-06-04 19:46:00,66.5,51.7,29.96,West,281,0.0,0.0,59,0.00,,,0.00,Wunderground v.1.15,2013-06-04 23:46:00,
2013-06-04 19:52:00,66.0,51.3,29.96,West,281,0.0,0.0,59,0.00,,,0.00,Wunderground v.1.15,2013-06-04 23:52:00,
2013-06-04 19:57:00,65.5,51.2,29.96,West,281,0.0,0.0,60,0.00,,,0.00,Wunderground v.1.15,2013-06-04 23:57:00,
2013-06-04 20:02:00,65.0,51.7,29.97,West,281,0.0,0.0,62,0.00,,,0.00,Wunderground v.1.15,2013-06-05 00:02:00,
2013-06-04 20:08:00,64.2,52.6,29.97,West,281,0.0,0.0,66,0.00,,,0.00,Wunderground v.1.15,2013-06-05 00:08:00,
2013-06-04 20:13:00,63.6,53.2,29.97,West,281,0.0,0.0,69,0.00,,,0.00,Wunderground v.1.15,2013-06-05 00:13:00,
2013-06-04 20:18:00,63.0,52.7,29.97,West,281,0.0,0.0,69,0.00,,,0.00,Wunderground v.1.15,2013-06-05 00:18:00,
2013-06-04 20:24:00,62.2,51.9,29.97,West,281,0.0,0.0,69,0.00,,,0.00,Wunderground v.1.15,2013-06-05 00:24:00,
2013-06-04 20:31:00,61.4,50.7,29.97,West,281,0.0,0.0,68,0.00,,,0.00,Wunderground v.1.15,2013-06-05 00:31:00,
2013-06-04 20:36:00,60.8,51.0,29.97,West,281,0.0,0.0,70,0.00,,,0.00,Wunderground v.1.15,2013-06-05 00:36:00,
2013-06-04 20:42:00,60.2,50.8,29.98,West,281,0.0,0.0,71,0.00,,,0.00,Wunderground v.1.15,2013-06-05 00:42:00,
2013-06-04 20:47:00,59.6,50.9,29.98,West,281,0.0,0.0,73,0.00,,,0.00,Wunderground v.1.15,2013-06-05 00:47:00,
2013-06-04 20:52:00,59.0,50.7,29.99,West,281,0.0,0.0,74,0.00,,,0.00,Wunderground v.1.15,2013-06-05 00:52:00,
2013-06-04 20:58:00,58.8,50.9,30.00,West,281,0.0,0.0,75,0.00,,,0.00,Wunderground v.1.15,2013-06-05 00:58:00,
2013-06-04 21:03:00,58.2,50.3,30.00,West,281,0.0,0.0,75,0.00,,,0.00,Wunderground v.1.15,2013-06-05 01:03:00,
2013-06-04 21:09:00,57.7,50.2,30.00,West,281,0.0,0.0,76,0.00,,,0.00,Wunderground v.1.15,2013-06-05 01:09:00,
2013-06-04 21:14:00,57.3,50.5,30.00,West,281,0.0,0.0,78,0.00,,,0.00,Wunderground v.1.15,2013-06-05 01:14:00,
2013-06-04 21:19:00,56.9,50.5,30.01,West,281,0.0,0.0,79,0.00,,,0.00,Wunderground v.1.15,2013-06-05 01:19:00,
2013-06-04 21:24:00,56.5,50.4,30.01,West,281,0.0,0.0,80,0.00,,,0.00,Wunderground v.1.15,2013-06-05 01:24:00,
2013-06-04 21:31:00,56.0,50.6,30.01,West,281,0.0,0.0,82,0.00,,,0.00,Wunderground v.1.15,2013-06-05 01:31:00,
2013-06-04 21:36:00,55.7,50.6,30.02,West,281,0.0,0.0,83,0.00,,,0.00,Wunderground v.1.15,2013-06-05 01:36:00,
2013-06-04 21:41:00,55.3,50.2,30.02,West,281,0.0,0.0,83,0.00,,,0.00,Wunderground v.1.15,2013-06-05 01:41:00,
2013-06-04 21:47:00,55.0,50.3,30.02,West,281,0.0,0.0,84,0.00,,,0.00,Wunderground v.1.15,2013-06-05 01:47:00,
2013-06-04 21:52:00,54.8,50.1,30.02,West,281,0.0,0.0,84,0.00,,,0.00,Wunderground v.1.15,2013-06-05 01:52:00,
2013-06-04 21:58:00,54.6,49.9,30.02,West,281,0.0,0.0,84,0.00,,,0.00,Wunderground v.1.15,2013-06-05 01:58:00,
2013-06-04 22:04:00,54.5,50.1,30.02,West,281,0.0,0.0,85,0.00,,,0.00,Wunderground v.1.15,2013-06-05 02:04:00,
2013-06-04 22:11:00,54.3,49.9,30.03,West,281,0.0,0.0,85,0.00,,,0.00,Wunderground v.1.15,2013-06-05 02:11:00,
2013-06-04 22:16:00,54.2,49.8,30.03,West,281,0.0,0.0,85,0.00,,,0.00,Wunderground v.1.15,2013-06-05 02:16:00,
2013-06-04 22:21:00,54.0,49.9,30.03,West,281,0.0,0.0,86,0.00,,,0.00,Wunderground v.1.15,2013-06-05 02:21:00,
2013-06-04 22:27:00,53.8,49.7,30.03,West,281,0.0,0.0,86,0.00,,,0.00,Wunderground v.1.15,2013-06-05 02:27:00,
2013-06-04 22:32:00,53.7,49.6,30.03,West,281,0.0,0.0,86,0.00,,,0.00,Wunderground v.1.15,2013-06-05 02:32:00,
2013-06-04 22:37:00,53.6,49.5,30.03,West,281,0.0,0.0,86,0.00,,,0.00,Wunderground v.1.15,2013-06-05 02:37:00,
2013-06-04 22:43:00,53.4,49.3,30.03,West,281,0.0,0.0,86,0.00,,,0.00,Wunderground v.1.15,2013-06-05 02:43:00,
2013-06-04 22:48:00,53.3,49.2,30.03,West,281,0.0,0.0,86,0.00,,,0.00,Wunderground v.1.15,2013-06-05 02:48:00,
2013-06-04 22:53:00,53.1,49.0,30.04,West,281,0.0,0.0,86,0.00,,,0.00,Wunderground v.1.15,2013-06-05 02:53:00,
2013-06-04 22:58:00,52.9,48.8,30.03,West,281,0.0,0.0,86,0.00,,,0.00,Wunderground v.1.15,2013-06-05 02:58:00,
2013-06-04 23:03:00,52.8,49.0,30.04,West,281,0.0,0.0,87,0.00,,,0.00,Wunderground v.1.15,2013-06-05 03:03:00,
2013-06-04 23:09:00,52.6,48.8,30.04,West,281,0.0,0.0,87,0.00,,,0.00,Wunderground v.1.15,2013-06-05 03:09:00,
2013-06-04 23:14:00,52.5,48.7,30.05,West,281,0.0,0.0,87,0.00,,,0.00,Wunderground v.1.15,2013-06-05 03:14:00,
2013-06-04 23:19:00,52.3,48.2,30.05,West,281,0.0,0.0,86,0.00,,,0.00,Wunderground v.1.15,2013-06-05 03:19:00,
2013-06-04 23:26:00,52.1,48.0,30.06,West,281,0.0,0.0,86,0.00,,,0.00,Wunderground v.1.15,2013-06-05 03:26:00,
2013-06-04 23:32:00,52.0,48.3,30.06,West,281,0.0,0.0,87,0.00,,,0.00,Wunderground v.1.15,2013-06-05 03:32:00,
2013-06-04 23:37:00,52.0,48.3,30.06,West,281,0.0,0.0,87,0.00,,,0.00,Wunderground v.1.15,2013-06-05 03:37:00,
2013-06-04 23:42:00,52.1,48.3,30.07,West,281,0.0,0.0,87,0.00,,,0.00,Wunderground v.1.15,2013-06-05 03:42:00,
2013-06-04 23:48:00,52.0,48.3,30.07,West,281,0.0,0.0,87,0.00,,,0.00,Wunderground v.1.15,2013-06-05 03:48:00,
2013-06-04 23:53:00,52.0,48.3,30.07,West,281,0.0,0.0,87,0.00,,,0.00,Wunderground v.1.15,2013-06-05 03:53:00,
2013-06-04 23:59:00,51.9,47.5,30.07,West,281,0.0,0.0,85,0.00,,,0.00,Wunderground v.1.15,2013-06-05 03:59:00,